Weather History for Mosinee, WI

Change the Weather History Date:

Wednesday, August 13, 2014

  Actual Average Record
Temperature  
Mean Temperature 65 °F -  
Max Temperature 75 °F 74 °F 82 °F (1996)
Min Temperature 55 °F 53 °F 42 °F (2004)
Growing Degree Days 15 (Base 50)    
Moisture  
Dew Point 53 °F    
Average Humidity 76    
Maximum Humidity 100    
Minimum Humidity 36    
Precipitation  
Precipitation 0.00 in - - ()
Sea Level Pressure  
Sea Level Pressure 30.02 in    
Wind  
Wind Speed 6 mph (NW)    
Max Wind Speed 14 mph    
Max Gust Speed 22 mph    
Visibility 10 miles    
Events      
Averages and records for this station are not official NWS values.
T = Trace of Precipitation, MM = Missing Value Source: NWS Daily Summary

Daily Weather History Graph

Daily Weather History Graph

Search for Another Location

Airport:

Trip Planner

Search our weather history database for the weather conditions in past years. The results will help you decide how hot, cold, wet, or windy it might be!

Date:

Astronomy

Aug. 13, 2014 Rise Set
Actual Time 5:58 AM CDT 8:07 PM CDT
Civil Twilight 5:26 AM CDT 8:39 PM CDT
Nautical Twilight 4:46 AM CDT 9:18 PM CDT
Astronomical Twilight 4:02 AM CDT 10:02 PM CDT
Moon 9:40 PM CDT (8/13) 9:37 AM CDT (8/13)
Length of Visible Light 15h 13m
Length of Day
14h 09m
Waning Gibbous, 87% of the Moon is Illuminated
Aug 13
Waning Gibbous
Aug 17
Last Quarter
Aug 25
New
Sep 2
First Quarter
Sep 8
Full

Hourly Weather History & Observations

Time (CDT) Temp. Dew Point Humidity Pressure Visibility Wind Dir Wind Speed Gust Speed Precip Events Conditions
12:15 AM 57.2 °F 51.8 °F 82% 29.99 in 10.0 mi WSW 5.8 mph - N/A   Scattered Clouds
12:35 AM 57.2 °F 53.6 °F 88% 29.99 in 10.0 mi WSW 5.8 mph - N/A   Mostly Cloudy
12:55 AM 59.0 °F 53.6 °F 82% 29.98 in 10.0 mi WSW 4.6 mph - N/A   Overcast
1:15 AM 59.0 °F 53.6 °F 82% 29.98 in 10.0 mi West 5.8 mph - N/A   Overcast
1:35 AM 59.0 °F 53.6 °F 82% 29.98 in 10.0 mi West 6.9 mph - N/A   Overcast
1:55 AM 59.0 °F 53.6 °F 82% 29.98 in 10.0 mi West 4.6 mph - N/A   Overcast
2:15 AM 59.0 °F 53.6 °F 82% 29.97 in 10.0 mi West 4.6 mph - N/A   Mostly Cloudy
2:35 AM 59.0 °F 55.4 °F 88% 29.98 in 10.0 mi West 3.5 mph - N/A   Mostly Cloudy
2:55 AM 59.0 °F 55.4 °F 88% 29.98 in 10.0 mi WNW 3.5 mph - N/A   Mostly Cloudy
3:15 AM 59.0 °F 55.4 °F 88% 29.98 in 10.0 mi NW 3.5 mph - N/A   Overcast
3:35 AM 57.2 °F 55.4 °F 94% 29.98 in 10.0 mi Calm Calm - N/A   Scattered Clouds
3:55 AM 59.0 °F 55.4 °F 88% 29.98 in 10.0 mi NW 5.8 mph - N/A   Clear
4:15 AM 59.0 °F 57.2 °F 94% 29.98 in 10.0 mi NNW 5.8 mph - N/A   Clear
4:35 AM 59.0 °F 57.2 °F 94% 29.98 in 10.0 mi North 5.8 mph - N/A   Scattered Clouds
4:55 AM 57.2 °F 55.4 °F 94% 29.98 in 10.0 mi NNW 3.5 mph - N/A   Scattered Clouds
5:15 AM 59.0 °F 55.4 °F 88% 29.99 in 10.0 mi NNW 4.6 mph - N/A   Clear
5:35 AM 55.4 °F 55.4 °F 100% 29.99 in 10.0 mi NW 3.5 mph - N/A   Clear
5:45 AM 55.4 °F 55.4 °F 100% 30.00 in 10.0 mi WNW 3.5 mph - N/A   Clear
8:20 AM 62.6 °F 60.8 °F 94% 30.04 in 10.0 mi NNW 8.1 mph - N/A   Mostly Cloudy
9:45 AM 62.6 °F 60.8 °F 94% 30.05 in 10.0 mi NW 8.1 mph - N/A   Overcast
10:45 AM 66.2 °F 60.8 °F 83% 30.06 in 10.0 mi NW 8.1 mph - N/A   Mostly Cloudy
11:45 AM 69.8 °F 59.0 °F 68% 30.06 in 10.0 mi NNW 11.5 mph - N/A   Mostly Cloudy
12:45 PM 73.4 °F 51.8 °F 47% 30.06 in 10.0 mi NW 13.8 mph 21.9 mph N/A   Scattered Clouds
1:52 PM 75.2 °F 50.0 °F 41% 30.05 in 10.0 mi WNW 11.5 mph 19.6 mph N/A   Scattered Clouds
2:50 PM 73.4 °F 51.8 °F 47% 30.06 in 10.0 mi NNW 11.5 mph 17.3 mph N/A   Scattered Clouds
3:45 PM 75.2 °F 48.2 °F 38% 30.06 in 10.0 mi NNW 10.4 mph - N/A   Scattered Clouds
5:45 PM 73.4 °F 44.6 °F 36% 30.06 in 10.0 mi NW 10.4 mph - N/A   Scattered Clouds
6:45 PM 71.6 °F 44.6 °F 38% 30.07 in 10.0 mi NNW 11.5 mph - N/A   Clear
7:45 PM 68.0 °F 44.6 °F 43% 30.07 in 10.0 mi North 6.9 mph - N/A   Clear
11:15 PM 55.4 °F 46.4 °F 72% 30.13 in 10.0 mi NE 5.8 mph - N/A   Clear
11:35 PM 55.4 °F 46.4 °F 72% 30.14 in 10.0 mi NNE 8.1 mph - N/A   Clear
11:55 PM 55.4 °F 46.4 °F 72% 30.14 in 10.0 mi NNE 6.9 mph - N/A   Clear